Location: Banff
(51.1670°N, 115.5670°W)
Time: 12:16:05
(UTC-07:00)

Amateur Radio Satellites - All Passes

Search period start: 28 February 2015 11:46
Search period end: 01 March 2015 11:46
Location: Banff, 51.1670°N, 115.5670°W

Satellite Date Start Highest point End Downlink Frequencies (MHz)
Time Altitude Azimuth
AISAT 28 Feb 11:51:57 11:56:27 85° 286° (WNW) 12:00:53 437.250
AO-7 28 Feb 11:54:11 11:56:43 12° 20° (NNE) 11:59:26 29.400- 29.500
NANOSAT C BR1 28 Feb 11:56:28 11:59:43 20° 270° (W) 12:02:53 145.865
DELFI C3 28 Feb 11:56:57 12:00:09 22° 297° (WNW) 12:03:16 145.870
DX 1 28 Feb 12:01:10 12:05:10 34° 295° (WNW) 12:09:06 434.975-435.025
VELOX 1 28 Feb 12:02:48 12:07:16 70° 288° (WNW) 12:11:41 145.980
DOVE 4 28 Feb 12:04:02 12:04:46 10° 308° (NW) 12:05:17 437.250
CUBEBUG 1 28 Feb 12:04:37 12:09:02 62° 101° (E) 12:13:24 437.445
TIGRISAT 28 Feb 12:06:09 12:07:37 11° 275° (W) 12:08:53 435.000
ESTCUBE 1 28 Feb 12:08:18 12:12:54 72° 103° (ESE) 12:17:27 437.505/2401.250
HO-68 28 Feb 12:18:05 12:23:09 21° 314° (NW) 12:28:02 435.675
FUNcube-1 28 Feb 12:21:21 12:24:31 21° 298° (WNW) 12:27:35 145.935
ZACube-1 28 Feb 12:21:39 12:24:48 21° 298° (WNW) 12:27:50 437.345
DANDE 28 Feb 12:29:27 12:32:05 27° 266° (W) 12:34:24 436.750
QB50P1 28 Feb 12:32:00 12:32:23 10° 277° (W) 12:32:33 145.935-145.965
UKube-1 28 Feb 12:34:40 12:37:51 20° 301° (WNW) 12:40:57 .
UWE-3 28 Feb 12:35:39 12:37:55 14° 303° (WNW) 12:40:02 435.000/436.395/437.385
ITAMSAT 1 28 Feb 12:38:38 12:42:38 23° 58° (ENE) 12:46:45 435.822/435.867
Oscar 19 28 Feb 12:44:46 12:49:47 57° 69° (ENE) 12:54:50 437.125/150
HUMSAT D 28 Feb 12:45:20 12:48:27 21° 298° (WNW) 12:51:28 437.325/437.525
SO-50 28 Feb 12:45:48 12:48:56 17° 248° (WSW) 12:51:54 436.795
O/OREOS (USA 219) 28 Feb 12:46:16 12:49:24 17° 321° (NW) 12:52:28 437.305
SPROUT 28 Feb 12:47:08 12:51:19 47° 99° (E) 12:55:29 437.525
ISS 28 Feb 12:56:06 12:59:21 89° 176° (S) 13:02:37 145.825
TISAT 1 28 Feb 13:00:19 13:04:31 57° 101° (E) 13:08:40 437.305
SWISSCUBE 28 Feb 13:03:52 13:06:26 15° 86° (E) 13:09:11 437.505
50 SAT 28 Feb 13:09:35 13:12:04 16° 300° (WNW) 13:14:26 437.505
BEESAT 28 Feb 13:12:44 13:15:39 16° 87° (E) 13:18:44 436.000
AISAT 28 Feb 13:30:00 13:32:26 14° 305° (NW) 13:34:44 437.250
Gurwin Techsat 1B 28 Feb 13:34:14 13:39:14 45° 66° (ENE) 13:44:18 435.225
HORYU 2 28 Feb 13:35:37 13:37:55 14° 56° (NE) 13:40:23 437.375
ITUPSAT 1 28 Feb 13:37:45 13:41:45 26° 92° (E) 13:45:49 437.325
AO-7 28 Feb 13:40:10 13:46:49 28° 46° (NE) 13:53:37 29.400- 29.500
VELOX 1 28 Feb 13:41:17 13:43:06 12° 307° (NW) 13:44:45 145.980
CUBEBUG 1 28 Feb 13:41:45 13:45:03 20° 300° (WNW) 13:48:13 437.445
ESTCUBE 1 28 Feb 13:46:08 13:49:20 19° 301° (WNW) 13:52:25 437.505/2401.250
KKS-1 28 Feb 14:06:36 14:07:23 11° 83° (E) 14:08:25 437.445
ITAMSAT 1 28 Feb 14:16:31 14:21:43 69° 256° (WSW) 14:26:59 435.822/435.867
JAS-2 28 Feb 14:22:09 14:25:53 18° 49° (NE) 14:30:04 435.910
SPROUT 28 Feb 14:23:43 14:27:12 24° 297° (WNW) 14:30:35 437.525
Oscar 19 28 Feb 14:25:18 14:29:32 25° 269° (W) 14:33:40 437.125/150
ISS 28 Feb 14:32:35 14:35:51 89° 57° (ENE) 14:39:06 145.825
TISAT 1 28 Feb 14:36:52 14:40:00 20° 299° (WNW) 14:43:03 437.305
SWISSCUBE 28 Feb 14:40:12 14:45:04 87° 285° (WNW) 14:49:53 437.505
BEESAT 28 Feb 14:49:20 14:54:10 78° 287° (WNW) 14:58:59 436.000
YUBILEINY 28 Feb 14:51:56 14:55:40 14° 69° (ENE) 14:59:55 435.215
HORYU 2 28 Feb 15:09:33 15:14:00 87° 79° (ENE) 15:18:28 437.375
Gurwin Techsat 1B 28 Feb 15:14:35 15:19:23 33° 266° (W) 15:24:10 435.225
ITUPSAT 1 28 Feb 15:15:16 15:19:56 49° 292° (WNW) 15:24:34 437.325
AO-7 28 Feb 15:30:21 15:38:43 85° 68° (ENE) 15:47:07 29.400- 29.500
KKS-1 28 Feb 15:40:26 15:44:55 78° 104° (ESE) 15:49:21 437.445
Cubesat XI-IV 28 Feb 15:49:24 15:51:04 12° 47° (NE) 15:52:58 437.490
STARS 28 Feb 15:52:28 15:56:53 70° 103° (ESE) 16:01:15 437.465
CUTE-I 28 Feb 15:58:17 16:00:39 13° 49° (NE) 16:03:13 437.470
ITAMSAT 1 28 Feb 16:00:33 16:02:21 11° 278° (W) 16:03:52 435.822/435.867
JAS-2 28 Feb 16:04:29 16:10:00 79° 72° (ENE) 16:16:16 435.910
ISS 28 Feb 16:09:07 16:12:06 33° 209° (SSW) 16:15:04 145.825
SWISSCUBE 28 Feb 16:19:20 16:22:18 16° 305° (NW) 16:25:08 437.505
BEESAT 28 Feb 16:28:40 16:31:20 15° 306° (NW) 16:33:51 436.000
MOZHAYETS 4 28 Feb 16:34:56 16:38:19 20° 89° (E) 16:41:48
YUBILEINY 28 Feb 16:42:14 16:50:41 59° 92° (E) 16:59:18 435.215
HORYU 2 28 Feb 16:49:16 16:51:23 13° 274° (W) 16:53:20 437.375
M-CUBED/EXP-1 PRIME 28 Feb 17:07:45 17:11:37 42° 105° (ESE) 17:15:49 437.505
AUBIESAT-1 28 Feb 17:11:46 17:15:38 41° 105° (ESE) 17:19:50 437.475
KKS-1 28 Feb 17:18:10 17:21:04 17° 303° (WNW) 17:23:50 437.445
Cubesat XI-IV 28 Feb 17:24:56 17:30:06 51° 67° (ENE) 17:35:21 437.490
AO-7 28 Feb 17:25:44 17:32:38 27° 271° (W) 17:39:18 29.400- 29.500
STARS 28 Feb 17:29:53 17:32:55 18° 302° (WNW) 17:35:51 437.465
HO-68 28 Feb 17:33:54 17:36:34 13° 35° (NE) 17:39:30 435.675
CUTE-I 28 Feb 17:34:31 17:39:47 60° 69° (ENE) 17:45:06 437.470
BEESAT 3 28 Feb 17:43:25 17:45:38 15° 113° (ESE) 17:48:01 437.485
O/OREOS (USA 219) 28 Feb 17:51:53 17:54:36 15° 37° (NE) 17:57:25 437.305
JAS-2 28 Feb 17:52:02 17:56:08 20° 276° (W) 18:00:21 435.910
BEESAT 2 28 Feb 18:05:23 18:08:25 20° 116° (ESE) 18:11:33 435.950
AIST 1 28 Feb 18:10:26 18:14:24 31° 70° (ENE) 18:18:22
MOZHAYETS 4 28 Feb 18:11:24 18:15:59 59° 288° (WNW) 18:20:33
CUBESAT XI-V 28 Feb 18:27:05 18:30:49 23° 90° (E) 18:34:37 437.345
PRISM 28 Feb 18:33:37 18:37:03 24° 93° (E) 18:40:32 437.425
YUBILEINY 28 Feb 18:39:48 18:48:00 41° 296° (WNW) 18:56:12 435.215
M-CUBED/EXP-1 PRIME 28 Feb 18:43:02 18:46:28 27° 301° (WNW) 18:50:04 437.505
CANX-2 28 Feb 18:45:57 18:46:36 10° 54° (NE) 18:47:26 2200.000
AUBIESAT-1 28 Feb 18:46:57 18:50:25 27° 301° (WNW) 18:54:03 437.475
BRITE-PL 28 Feb 18:54:48 18:59:10 24° 61° (ENE) 19:03:28 437.365/2234.400
CUTE 1.7 + AOD 2 28 Feb 19:03:18 19:05:23 14° 57° (ENE) 19:07:37 437.475
Cubesat XI-IV 28 Feb 19:05:49 19:10:30 29° 267° (W) 19:15:09 437.490
GOMX 1 28 Feb 19:11:34 19:15:35 23° 61° (ENE) 19:19:34 467.674
STRAND 1 28 Feb 19:15:04 19:19:52 38° 96° (E) 19:24:39 437.568
CUTE-I 28 Feb 19:15:52 19:20:18 25° 269° (W) 19:24:40 437.470
HO-68 28 Feb 19:16:03 19:22:32 40° 58° (ENE) 19:29:07 435.675
BEESAT 3 28 Feb 19:19:03 19:23:12 87° 310° (NW) 19:27:24 437.485
AIST 2 28 Feb 19:26:56 19:31:01 46° 124° (ESE) 19:35:11 435.215
O/OREOS (USA 219) 28 Feb 19:30:21 19:34:58 69° 59° (ENE) 19:39:33 437.305
BEESAT 2 28 Feb 19:42:06 19:46:14 65° 315° (NW) 19:50:25 435.950
AIST 1 28 Feb 19:48:06 19:52:06 33° 269° (W) 19:56:01
MOZHAYETS 4 28 Feb 19:51:08 19:52:22 11° 308° (NW) 19:53:25
AAUSAT CUBESAT 2 28 Feb 19:54:05 19:57:25 24° 64° (ENE) 20:00:50 437.432
COMPASS 1 28 Feb 19:54:40 19:58:11 27° 65° (ENE) 20:01:45 437.405
DOVE 4 28 Feb 19:56:20 20:00:56 35° 66° (ENE) 20:05:23 437.250
CUBESAT XI-V 28 Feb 20:03:59 20:08:37 53° 290° (WNW) 20:13:12 437.345
PRISM 28 Feb 20:08:43 20:12:45 43° 292° (WNW) 20:16:45 437.425
FUNcube-1 28 Feb 20:11:57 20:13:39 12° 56° (ENE) 20:15:30 145.935
ZACube-1 28 Feb 20:12:16 20:14:03 13° 56° (ENE) 20:16:00 437.345
VERMONT LUNAR 28 Feb 20:16:46 20:18:21 13° 169° (S) 20:19:58 437.305
CANX-2 28 Feb 20:17:37 20:21:48 66° 73° (ENE) 20:26:00 2200.000
SEEDS 28 Feb 20:18:04 20:22:08 52° 71° (ENE) 20:26:14 437.485
CINEMA 3 28 Feb 20:21:10 20:25:23 33° 66° (ENE) 20:29:29 145.822/145.860
UKube-1 28 Feb 20:23:40 20:26:17 16° 57° (ENE) 20:29:02 .
UWE-3 28 Feb 20:24:59 20:28:01 19° 61° (ENE) 20:31:06 435.000/436.395/437.385
BRITE-PL 28 Feb 20:31:38 20:37:17 71° 258° (WSW) 20:42:43 437.365/2234.400
HUMSAT D 28 Feb 20:33:43 20:34:48 11° 55° (NE) 20:36:03 437.325/437.525
CUTE 1.7 + AOD 2 28 Feb 20:36:32 20:40:45 89° 254° (WSW) 20:45:01 437.475
YUBILEINY 28 Feb 20:44:38 20:48:10 12° 325° (NW) 20:51:19 435.215
GOMX 1 28 Feb 20:47:58 20:53:21 70° 258° (WSW) 20:58:29 467.674
50 SAT 28 Feb 20:53:20 20:54:38 12° 57° (ENE) 20:56:05 437.505
STRAND 1 28 Feb 20:54:20 20:59:06 38° 296° (WNW) 21:03:48 437.568
CUBEBUG 2 28 Feb 20:56:30 21:00:41 40° 68° (ENE) 21:04:47 437.445
GONETS M04 28 Feb 20:58:00 21:03:32 20° 75° (ENE) 21:09:26
BEESAT 3 28 Feb 20:58:34 21:01:52 22° 333° (NNW) 21:05:10 437.485
HO-68 28 Feb 21:03:07 21:10:07 56° 259° (W) 21:17:10 435.675
Oscar 11 28 Feb 21:04:54 21:09:08 60° 72° (ENE) 21:13:25 145.826/435.025
AIST 2 28 Feb 21:05:48 21:09:46 35° 324° (NW) 21:13:46 435.215
O/OREOS (USA 219) 28 Feb 21:10:46 21:13:56 18° 258° (WSW) 21:16:58 437.305
DELFI C3 28 Feb 21:14:06 21:18:04 59° 72° (ENE) 21:22:04 145.870
AISAT 28 Feb 21:19:27 21:23:02 24° 62° (ENE) 21:26:42 437.250
BEESAT 2 28 Feb 21:22:06 21:25:11 19° 337° (NNW) 21:28:14 435.950
DX 1 28 Feb 21:25:18 21:29:36 54° 70° (ENE) 21:33:55 434.975-435.025
AAUSAT CUBESAT 2 28 Feb 21:28:57 21:32:55 42° 263° (W) 21:36:52 437.432
VELOX 1 28 Feb 21:29:45 21:33:34 28° 63° (ENE) 21:37:27 145.980
COMPASS 1 28 Feb 21:29:56 21:33:48 36° 263° (W) 21:37:41 437.405
CUBEBUG 1 28 Feb 21:31:42 21:34:18 16° 57° (ENE) 21:37:02 437.445
DOVE 4 28 Feb 21:33:52 21:38:41 39° 264° (W) 21:43:17 437.250
PCSat 28 Feb 21:36:13 21:41:12 39° 116° (ESE) 21:46:16 145.827
ESTCUBE 1 28 Feb 21:37:56 21:41:05 19° 59° (ENE) 21:44:22 437.505/2401.250
PHONESAT 2.4 28 Feb 21:42:07 21:44:19 15° 177° (S) 21:46:31 2401.200-2431.200
CUBESAT XI-V 28 Feb 21:44:42 21:45:07 10° 309° (NW) 21:45:22 437.345
FUNcube-1 28 Feb 21:45:01 21:49:23 78° 73° (ENE) 21:53:41 145.935
ZACube-1 28 Feb 21:45:27 21:49:50 80° 74° (ENE) 21:54:08 437.345
VERMONT LUNAR 28 Feb 21:53:31 21:55:27 14° 186° (S) 21:57:22 437.305
SEEDS 28 Feb 21:55:14 21:58:19 19° 270° (W) 22:01:18 437.485
CANX-2 28 Feb 21:55:36 21:58:16 16° 273° (W) 22:00:46 2200.000
UKube-1 28 Feb 21:57:34 22:01:56 80° 256° (WSW) 22:06:20 .
CINEMA 3 28 Feb 21:58:08 22:02:35 37° 264° (W) 22:06:50 145.822/145.860
UWE-3 28 Feb 21:59:47 22:04:14 64° 259° (W) 22:08:32 435.000/436.395/437.385
HUMSAT D 28 Feb 22:05:44 22:09:55 72° 74° (ENE) 22:14:05 437.325/437.525
SPROUT 28 Feb 22:13:40 22:15:05 12° 55° (NE) 22:16:39 437.525
TIGRISAT 28 Feb 22:13:46 22:15:45 13° 86° (E) 22:17:57 435.000
BRITE-PL 28 Feb 22:14:12 22:16:47 13° 278° (W) 22:19:04 437.365/2234.400
CUTE 1.7 + AOD 2 28 Feb 22:16:01 22:17:26 11° 276° (W) 22:18:39 437.475
TISAT 1 28 Feb 22:24:33 22:26:33 13° 56° (NE) 22:28:41 437.305
50 SAT 28 Feb 22:25:03 22:29:03 82° 72° (ENE) 22:33:03 437.505
ANTELSAT 28 Feb 22:25:29 22:28:22 18° 89° (E) 22:31:22 437.575/2403.000
GOMX 1 28 Feb 22:30:21 22:32:26 12° 278° (W) 22:34:11 467.674
QB50P1 28 Feb 22:33:22 22:35:05 12° 85° (E) 22:36:58 145.935-145.965
CUBEBUG 2 28 Feb 22:33:37 22:37:31 28° 266° (W) 22:41:18 437.445
QB50P2 28 Feb 22:36:11 22:38:14 13° 86° (E) 22:40:26 145.880/145.840
BEESAT 3 28 Feb 22:39:30 22:41:24 13° 356° (N) 22:43:17 437.485
Oscar 11 28 Feb 22:42:48 22:45:46 18° 271° (W) 22:48:39 145.826/435.025
AIST 2 28 Feb 22:47:00 22:49:34 15° 347° (NNW) 22:52:07 435.215
GONETS M04 28 Feb 22:50:25 22:59:05 78° 96° (E) 23:07:48
DELFI C3 28 Feb 22:51:05 22:53:42 16° 272° (W) 22:56:14 145.870
DUCHIFAT 1 28 Feb 22:52:30 22:55:27 19° 89° (E) 22:58:29 145.980
BUGSAT 1 28 Feb 22:54:22 22:56:45 15° 87° (E) 22:59:15 437.445
AISAT 28 Feb 22:55:01 22:59:25 50° 261° (W) 23:03:50 437.250
HO-68 28 Feb 22:57:19 22:59:44 11° 282° (WNW) 23:01:40 435.675
DX 1 28 Feb 23:02:51 23:06:12 20° 269° (W) 23:09:28 434.975-435.025
BEESAT 2 28 Feb 23:02:59 23:04:52 13° 0° (N) 23:06:47 435.950
CUBEBUG 1 28 Feb 23:05:39 23:10:08 85° 255° (WSW) 23:14:38 437.445
VELOX 1 28 Feb 23:05:45 23:10:01 41° 262° (W) 23:14:18 145.980
RS-15 28 Feb 23:06:44 23:15:14 29° 105° (ESE) 23:24:10 29.354- 29.394
POLYITAN 1 28 Feb 23:09:47 23:13:25 27° 94° (E) 23:17:04 437.675
POPSAT HIP 1 28 Feb 23:11:23 23:15:02 28° 94° (E) 23:18:43 437.405
ESTCUBE 1 28 Feb 23:13:01 23:17:33 68° 258° (WSW) 23:22:07 437.505/2401.250
ITUPSAT 1 28 Feb 23:16:33 23:17:09 10° 50° (NE) 23:17:56 437.325
PCSat 28 Feb 23:19:21 23:24:36 47° 317° (NW) 23:29:53 145.827
PHONESAT 2.4 28 Feb 23:20:19 23:21:57 13° 193° (SSW) 23:23:33 2401.200-2431.200
UNISAT 6 28 Feb 23:22:44 23:26:59 60° 101° (E) 23:31:16 437.425
FUNcube-1 28 Feb 23:23:59 23:26:20 14° 273° (W) 23:28:30 145.935
ZACube-1 28 Feb 23:24:33 23:26:50 14° 274° (W) 23:28:55 437.345
NANOSAT C BR1 28 Feb 23:35:09 23:39:16 47° 99° (E) 23:43:20 145.865
UKube-1 28 Feb 23:37:52 23:38:56 11° 276° (W) 23:39:46 .
HUMSAT D 28 Feb 23:43:52 23:46:16 14° 273° (W) 23:48:29 437.325/437.525
SPROUT 28 Feb 23:46:09 23:50:28 70° 73° (ENE) 23:54:49 437.525
TIGRISAT 28 Feb 23:48:53 23:53:10 79° 286° (WNW) 23:57:28 435.000
TISAT 1 28 Feb 23:57:27 00:01:45 84° 74° (ENE) 00:06:04 437.305
ANTELSAT 01 Mar 00:01:23 00:05:36 59° 289° (WNW) 00:09:50 437.575/2403.000
DANDE 01 Mar 00:02:35 00:07:52 27° 94° (E) 00:12:14 436.750
50 SAT 01 Mar 00:03:12 00:04:42 12° 274° (W) 00:06:01 437.505
QB50P1 01 Mar 00:07:23 00:11:40 84° 286° (WNW) 00:15:53 145.935-145.965
QB50P2 01 Mar 00:10:30 00:14:46 78° 286° (WNW) 00:19:00 145.880/145.840
SWISSCUBE 01 Mar 00:14:59 00:19:07 30° 63° (ENE) 00:23:19 437.505
BEESAT 3 01 Mar 00:18:16 00:21:03 17° 20° (NNE) 00:23:51 437.485
BEESAT 01 Mar 00:23:52 00:28:06 33° 64° (ENE) 00:32:25 436.000
AIST 2 01 Mar 00:27:22 00:29:48 15° 11° (N) 00:32:15 435.215
DUCHIFAT 1 01 Mar 00:27:32 00:31:42 55° 289° (WNW) 00:35:49 145.980
BUGSAT 1 01 Mar 00:28:34 00:32:48 68° 287° (WNW) 00:36:55 437.445
BEESAT 2 01 Mar 00:41:27 00:44:33 20° 24° (NNE) 00:47:40 435.950
CUSAT 1 01 Mar 00:43:31 00:49:37 61° 100° (E) 00:54:12 437.405
POLYITAN 1 01 Mar 00:45:32 00:49:29 37° 293° (WNW) 00:53:21 437.675
CUBEBUG 1 01 Mar 00:45:36 00:47:19 12° 276° (W) 00:48:48 437.445
POPSAT HIP 1 01 Mar 00:47:07 00:51:02 36° 293° (WNW) 00:54:54 437.405
GONETS M04 01 Mar 00:49:25 00:56:59 31° 302° (WNW) 01:04:26
ITUPSAT 1 01 Mar 00:49:26 00:54:05 52° 69° (ENE) 00:58:47 437.325
YUBILEINY 01 Mar 00:50:41 00:53:34 12° 34° (NE) 00:56:52 435.215
Oscar 19 01 Mar 00:52:41 00:54:59 13° 84° (E) 00:57:31 437.125/150
UNISAT 6 01 Mar 01:00:21 01:03:27 19° 300° (WNW) 01:06:27 437.425
PCSat 01 Mar 01:05:32 01:09:22 19° 341° (NNW) 01:13:09 145.827
KKS-1 01 Mar 01:08:33 01:11:49 20° 60° (ENE) 01:15:09 437.445
NANOSAT C BR1 01 Mar 01:11:30 01:14:54 23° 298° (WNW) 01:18:12 145.865
RS-15 01 Mar 01:15:19 01:26:15 87° 129° (SE) 01:37:28 29.354- 29.394
STARS 01 Mar 01:19:52 01:22:49 18° 59° (ENE) 01:25:52 437.465
SPROUT 01 Mar 01:24:25 01:27:07 16° 273° (W) 01:29:40 437.525
TIGRISAT 01 Mar 01:27:30 01:29:18 12° 305° (NW) 01:30:58 435.000
TISAT 1 01 Mar 01:36:12 01:38:15 13° 274° (W) 01:40:06 437.305
DANDE 01 Mar 01:44:36 01:51:09 58° 285° (WNW) 01:56:02 436.750
QB50P1 01 Mar 01:44:53 01:46:56 13° 304° (NW) 01:48:50 145.935-145.965
Gurwin Techsat 1B 01 Mar 01:47:16 01:48:49 11° 81° (E) 01:50:39 435.225
QB50P2 01 Mar 01:48:14 01:50:02 12° 305° (NW) 01:51:40 145.880/145.840
SWISSCUBE 01 Mar 01:52:18 01:56:52 43° 262° (W) 02:01:28 437.505
BEESAT 3 01 Mar 01:55:58 02:00:03 51° 42° (NE) 02:04:05 437.485
BEESAT 01 Mar 02:01:27 02:05:55 39° 263° (W) 02:10:25 436.000
AIST 2 01 Mar 02:05:46 02:09:40 32° 34° (NE) 02:13:31 435.215
BUGSAT 1 01 Mar 02:06:25 02:07:32 11° 306° (NW) 02:08:29 437.445
BEESAT 2 01 Mar 02:19:16 02:23:28 69° 46° (NE) 02:27:36 435.950
ITAMSAT 1 01 Mar 02:24:25 02:28:56 29° 93° (E) 02:33:29 435.822/435.867
CUSAT 1 01 Mar 02:28:07 02:32:40 23° 293° (WNW) 02:36:17 437.405
ITUPSAT 1 01 Mar 02:28:23 02:32:19 24° 268° (W) 02:36:11 437.325
M-CUBED/EXP-1 PRIME 01 Mar 02:29:14 02:31:11 15° 53° (NE) 02:33:17 437.505
Oscar 19 01 Mar 02:30:07 02:35:17 81° 104° (ESE) 02:40:26 437.125/150
AUBIESAT-1 01 Mar 02:32:53 02:34:48 15° 53° (NE) 02:36:53 437.475
KKS-1 01 Mar 02:43:38 02:48:06 62° 259° (WSW) 02:52:34 437.445
YUBILEINY 01 Mar 02:45:40 02:53:50 40° 64° (ENE) 03:02:03 435.215
PCSat 01 Mar 02:51:44 02:54:54 15° 7° (N) 02:58:05 145.827
STARS 01 Mar 02:54:25 02:58:51 71° 256° (WSW) 03:03:18 437.465
HORYU 2 01 Mar 02:57:47 02:59:21 12° 85° (E) 03:01:07 437.375
SO-50 01 Mar 03:03:22 03:07:52 52° 125° (SE) 03:12:34 436.795
JAS-2 01 Mar 03:09:49 03:11:41 11° 76° (ENE) 03:14:07 435.910
Gurwin Techsat 1B 01 Mar 03:24:37 03:29:57 69° 102° (ESE) 03:35:16 435.225
AO-7 01 Mar 03:27:12 03:32:49 20° 85° (E) 03:38:45 29.400- 29.500
RS-15 01 Mar 03:29:23 03:39:55 48° 339° (NNW) 03:50:45 29.354- 29.394
DANDE 01 Mar 03:33:37 03:35:16 11° 304° (WNW) 03:36:33 436.750
BEESAT 3 01 Mar 03:34:27 03:37:57 26° 242° (WSW) 03:41:20 437.485
MOZHAYETS 4 01 Mar 03:41:47 03:45:52 34° 66° (ENE) 03:50:01
AIST 2 01 Mar 03:44:17 03:48:30 53° 235° (SW) 03:52:36 435.215
BEESAT 2 01 Mar 03:58:15 04:01:15 19° 245° (WSW) 04:04:08 435.950
M-CUBED/EXP-1 PRIME 01 Mar 04:02:30 04:05:47 57° 252° (WSW) 04:09:13 437.505
ITAMSAT 1 01 Mar 04:03:38 04:08:42 49° 293° (WNW) 04:13:42 435.822/435.867
AUBIESAT-1 01 Mar 04:06:03 04:09:20 59° 252° (WSW) 04:12:47 437.475
Oscar 19 01 Mar 04:10:27 04:14:07 20° 304° (WNW) 04:17:40 437.125/150
HORYU 2 01 Mar 04:32:20 04:36:48 86° 105° (ESE) 04:41:16 437.375
PCSat 01 Mar 04:35:29 04:40:08 28° 32° (NNE) 04:44:49 145.827
YUBILEINY 01 Mar 04:42:32 04:51:13 62° 268° (W) 04:59:50 435.215
SO-50 01 Mar 04:44:14 04:48:38 37° 326° (NW) 04:53:09 436.795
JAS-2 01 Mar 04:51:29 04:58:29 52° 98° (E) 05:06:03 435.910
STRAND 1 01 Mar 04:59:15 05:02:34 18° 55° (NE) 05:06:01 437.568
Gurwin Techsat 1B 01 Mar 05:05:19 05:09:32 24° 302° (WNW) 05:13:38 435.225
AO-7 01 Mar 05:18:47 05:27:10 79° 108° (ESE) 05:35:28 29.400- 29.500
MOZHAYETS 4 01 Mar 05:18:55 05:23:07 35° 265° (W) 05:27:19
PRISM 01 Mar 05:28:53 05:32:40 35° 66° (ENE) 05:36:31 437.425
CUBESAT XI-V 01 Mar 05:35:20 05:39:40 39° 67° (ENE) 05:44:06 437.345
Cubesat XI-IV 01 Mar 05:38:33 05:41:00 13° 83° (E) 05:43:41 437.490
RS-15 01 Mar 05:44:49 05:55:15 43° 12° (NNE) 06:06:09 29.354- 29.394
ITAMSAT 1 01 Mar 05:45:45 05:47:08 11° 313° (NW) 05:48:18 435.822/435.867
CUTE-I 01 Mar 05:47:35 05:50:42 16° 85° (E) 05:54:01 437.470
HORYU 2 01 Mar 06:10:15 06:12:55 15° 304° (WNW) 06:15:28 437.375
PCSat 01 Mar 06:18:44 06:24:13 84° 235° (SW) 06:29:39 145.827
SO-50 01 Mar 06:27:09 06:30:29 18° 350° (N) 06:33:51 436.795
STRAND 1 01 Mar 06:35:59 06:41:08 89° 82° (E) 06:46:22 437.568
JAS-2 01 Mar 06:36:47 06:43:30 45° 296° (WNW) 06:50:41 435.910
YUBILEINY 01 Mar 06:41:40 06:46:19 15° 290° (WNW) 06:50:29 435.215
AIST 1 01 Mar 06:47:16 06:49:32 14° 83° (E) 06:51:58
GONETS M04 01 Mar 06:58:25 07:03:03 15° 41° (NE) 07:08:04
PRISM 01 Mar 07:04:37 07:08:15 28° 265° (W) 07:11:53 437.425
AO-7 01 Mar 07:12:09 07:19:23 34° 310° (NW) 07:26:28 29.400- 29.500
CUBESAT XI-V 01 Mar 07:13:03 07:17:14 31° 267° (W) 07:21:26 437.345
Cubesat XI-IV 01 Mar 07:16:43 07:22:08 78° 103° (ESE) 07:27:31 437.490
CUTE-I 01 Mar 07:26:14 07:31:39 89° 90° (E) 07:37:02 437.470
RS-15 01 Mar 07:58:23 08:09:42 74° 42° (NE) 08:21:33 29.354- 29.394
PCSat 01 Mar 08:03:31 08:06:56 17° 254° (WSW) 08:10:09 145.827
SO-50 01 Mar 08:09:13 08:12:43 19° 14° (NNE) 08:16:18 436.795
STRAND 1 01 Mar 08:18:02 08:21:10 16° 274° (W) 08:24:07 437.568
CUTE 1.7 + AOD 2 01 Mar 08:18:44 08:20:09 12° 84° (E) 08:21:46 437.475
AIST 1 01 Mar 08:22:18 08:26:40 73° 282° (WNW) 08:31:05
JAS-2 01 Mar 08:23:47 08:27:07 14° 317° (NW) 08:30:17 435.910
HO-68 01 Mar 08:25:26 08:30:55 24° 88° (E) 08:36:35 435.675
BRITE-PL 01 Mar 08:32:31 08:36:27 26° 90° (E) 08:40:11 437.365/2234.400
GOMX 1 01 Mar 08:45:51 08:49:24 23° 90° (E) 08:52:53 467.674
UNISAT 6 01 Mar 08:52:22 08:54:53 16° 58° (ENE) 08:57:31 437.425
GONETS M04 01 Mar 08:54:09 09:02:38 52° 69° (ENE) 09:11:11
Cubesat XI-IV 01 Mar 08:57:40 09:01:44 22° 304° (WNW) 09:05:42 437.490
NANOSAT C BR1 01 Mar 09:00:29 09:01:43 11° 55° (NE) 09:03:09 145.865
AO-7 01 Mar 09:06:10 09:09:47 13° 335° (NNW) 09:13:13 29.400- 29.500
AAUSAT CUBESAT 2 01 Mar 09:07:20 09:10:35 22° 91° (E) 09:13:53 437.432
CUTE-I 01 Mar 09:07:21 09:11:07 19° 305° (NW) 09:14:45 437.470
COMPASS 1 01 Mar 09:08:28 09:11:57 25° 93° (E) 09:15:28 437.405
TIGRISAT 01 Mar 09:17:08 09:20:36 24° 63° (ENE) 09:24:06 435.000
DOVE 4 01 Mar 09:28:00 09:32:08 39° 96° (E) 09:36:06 437.250
ANTELSAT 01 Mar 09:29:24 09:33:13 31° 65° (ENE) 09:37:03 437.575/2403.000
QB50P1 01 Mar 09:30:44 09:33:50 20° 61° (ENE) 09:37:01 145.935-145.965
ZACube-1 01 Mar 09:32:10 09:32:21 10° 83° (E) 09:32:47 437.345
SEEDS 01 Mar 09:33:04 09:37:12 50° 99° (E) 09:41:20 437.485
CANX-2 01 Mar 09:33:41 09:37:56 65° 102° (ESE) 09:42:10 2200.000
QB50P2 01 Mar 09:33:50 09:37:04 22° 62° (ENE) 09:40:23 145.880/145.840
UKube-1 01 Mar 09:42:01 09:43:43 12° 85° (E) 09:45:36 .
UWE-3 01 Mar 09:45:36 09:48:19 17° 89° (E) 09:51:07 435.000/436.395/437.385
CINEMA 3 01 Mar 09:47:53 09:51:45 34° 95° (E) 09:55:35 145.822/145.860
O/OREOS (USA 219) 01 Mar 09:48:12 09:52:05 28° 106° (ESE) 09:56:03 437.305
BUGSAT 1 01 Mar 09:49:10 09:52:30 23° 62° (ENE) 09:55:55 437.445
SO-50 01 Mar 09:49:44 09:54:27 44° 37° (NE) 09:59:12 436.795
DUCHIFAT 1 01 Mar 09:49:51 09:53:30 28° 64° (ENE) 09:57:12 145.980
CUTE 1.7 + AOD 2 01 Mar 09:52:32 09:56:49 90° 286° (WNW) 10:01:04 437.475
AIST 1 01 Mar 10:03:59 10:05:18 11° 304° (NW) 10:06:25
POLYITAN 1 01 Mar 10:07:45 10:11:47 41° 68° (ENE) 10:15:51 437.675
POPSAT HIP 1 01 Mar 10:09:04 10:13:07 42° 68° (ENE) 10:17:11 437.405
BRITE-PL 01 Mar 10:10:42 10:15:16 44° 292° (WNW) 10:19:28 437.365/2234.400
RS-15 01 Mar 10:11:09 10:21:41 45° 247° (WSW) 10:32:29 29.354- 29.394
HO-68 01 Mar 10:12:22 10:19:37 85° 289° (WNW) 10:26:49 435.675
CUBEBUG 2 01 Mar 10:18:59 10:22:57 41° 98° (E) 10:26:53 437.445
Oscar 11 01 Mar 10:23:08 10:27:26 60° 101° (E) 10:31:43 145.826/435.025
GOMX 1 01 Mar 10:23:31 10:27:54 46° 291° (WNW) 10:32:00 467.674
DELFI C3 01 Mar 10:24:03 10:28:03 50° 99° (E) 10:32:03 145.870
UNISAT 6 01 Mar 10:26:47 10:31:12 81° 256° (WSW) 10:35:33 437.425
ISS 01 Mar 10:27:47 10:30:18 21° 145° (SE) 10:32:51 145.825
NANOSAT C BR1 01 Mar 10:32:37 10:36:53 70° 73° (ENE) 10:41:10 145.865
DANDE 01 Mar 10:40:07 10:41:32 13° 59° (ENE) 10:42:57 436.750
AISAT 01 Mar 10:41:18 10:44:45 22° 91° (E) 10:48:16 437.250
AAUSAT CUBESAT 2 01 Mar 10:42:28 10:46:29 46° 290° (WNW) 10:50:30 437.432
COMPASS 1 01 Mar 10:43:52 10:47:50 40° 291° (WNW) 10:51:45 437.405
DX 1 01 Mar 10:44:42 10:48:58 48° 99° (E) 10:53:13 434.975-435.025
CUBEBUG 1 01 Mar 10:51:13 10:53:16 13° 85° (E) 10:55:29 437.445
GONETS M04 01 Mar 10:51:18 10:59:28 45° 273° (W) 11:07:35
VELOX 1 01 Mar 10:51:24 10:55:09 26° 93° (E) 10:58:56 145.980
TIGRISAT 01 Mar 10:52:55 10:57:10 47° 261° (W) 11:01:22 435.000
ESTCUBE 1 01 Mar 11:01:29 11:04:38 19° 89° (E) 11:07:53 437.505/2401.250
FUNcube-1 01 Mar 11:04:41 11:08:52 81° 102° (ESE) 11:13:02 145.935
QB50P1 01 Mar 11:05:09 11:09:24 58° 259° (W) 11:13:38 145.935-145.965
ZACube-1 01 Mar 11:05:22 11:09:33 84° 104° (ESE) 11:13:43 437.345
ANTELSAT 01 Mar 11:05:56 11:10:00 35° 264° (W) 11:13:59 437.575/2403.000
DOVE 4 01 Mar 11:06:05 11:09:49 27° 297° (WNW) 11:13:21 437.250
QB50P2 01 Mar 11:08:29 11:12:42 53° 260° (W) 11:16:56 145.880/145.840
SEEDS 01 Mar 11:09:30 11:12:45 22° 298° (WNW) 11:15:57 437.485
CANX-2 01 Mar 11:10:33 11:13:28 18° 300° (WNW) 11:16:18 2200.000
UKube-1 01 Mar 11:16:13 11:20:36 89° 287° (WNW) 11:24:58 .
CUSAT 1 01 Mar 11:17:56 11:20:40 46° 73° (ENE) 11:23:11 437.405
HUMSAT D 01 Mar 11:20:38 11:24:45 67° 102° (ESE) 11:28:51 437.325/437.525
UWE-3 01 Mar 11:21:12 11:25:18 58° 288° (WNW) 11:29:22 435.000/436.395/437.385
BUGSAT 1 01 Mar 11:23:34 11:27:44 49° 260° (W) 11:31:56 437.445
DUCHIFAT 1 01 Mar 11:25:14 11:29:16 38° 263° (W) 11:33:16 145.980
CINEMA 3 01 Mar 11:25:16 11:28:57 29° 295° (WNW) 11:32:31 145.822/145.860
O/OREOS (USA 219) 01 Mar 11:26:58 11:31:22 44° 306° (NW) 11:35:48 437.305
CUTE 1.7 + AOD 2 01 Mar 11:29:58 11:32:10 14° 303° (WNW) 11:34:15 437.475
SO-50 01 Mar 11:30:24 11:35:05 43° 238° (WSW) 11:39:44 436.795
50 SAT 01 Mar 11:33:31 11:37:28 66° 102° (ESE) 11:41:24 437.505
